Location: Batesville
(34.7480°N, 83.6110°W)
Time: 18:37:05
(UTC-04:00)

Envisat - Pass Details

Date: 21 January 2018
Orbit: 764 x 766 km, 98.2° (Epoch: 21 May)

Event Time Altitude Azimuth Distance (km) Brightness Sun altitude
Exits shadow 19:51:42 13° 4° (N) 2,129 5.2 -24.3°
Drops below altitude 10° 19:52:10 10° 2° (N) 2,305 5.4 -24.4°
Sets 19:54:34 0° 356° (N) 3,235 6.2 -24.9°
